Location: Pella
(41.4080°N, 92.9160°W)
Time: 14:17:53
(UTC-06:00)

ASTRO E2 - Visible Passes

Search period start: 22 January 2017 00:00
Search period end: 01 February 2017 00:00
Orbit: 516 x 523 km, 31.4° (Epoch: 22 January)

Date Brightness Start Highest point End Pass type
(mag) Time Alt. Az. Time Alt. Az. Time Alt. Az.
22 Jan 5.5 06:38:23 10° S 06:39:57 12° SSE 06:41:31 10° SE visible
23 Jan 5.4 06:21:21 10° SSW 06:23:17 13° SSE 06:25:13 10° SE visible
24 Jan 5.3 06:04:25 10° SSW 06:06:36 14° SSE 06:08:48 10° SE visible
25 Jan 5.2 05:47:35 10° SSW 05:49:57 15° SSE 05:52:21 10° SE visible
26 Jan 4.9 05:32:05 15° S 05:33:16 16° S 05:35:50 10° SE visible
27 Jan 4.9 05:16:31 17° S 05:16:36 17° S 05:19:17 10° SE visible
27 Jan 4.9 06:53:42 10° SW 06:56:32 19° S 06:59:22 10° SE visible
28 Jan 5.1 05:00:54 17° SSE 05:00:54 17° SSE 05:02:42 10° SE visible
28 Jan 4.9 06:37:07 10° SW 06:39:52 18° S 06:42:37 10° SE visible
29 Jan 5.4 04:45:14 14° SE 04:45:14 14° SE 04:46:07 10° SE visible
29 Jan 4.9 06:20:33 10° SW 06:23:12 17° S 06:25:51 10° SSE visible
30 Jan 4.9 06:04:31 12° SW 06:06:32 16° S 06:09:02 10° SSE visible
31 Jan 4.8 05:48:50 14° SSW 05:49:50 15° SSW 05:52:11 10° SSE visible
